THORAD AGENA D DEB, 10136

Orbit data source: Space-Track

THORAD AGENA D DEB, 10136 is space debris in SSO originally from a launch on Wed, 08 Apr 1970 UTC launched from the Air Force Western Test Range (AFWTR). Debris objects in space refer to the collection of defunct objects orbiting the Earth. Examples of debris include non-operational satellites, rocket bodies, and fragments generated from explosions, collisions, or faulty payload assembly.

Loading next visibility...
Identifier
10136, 1970-025NQ
Orbit
SSO
Country
Flag of USUS
Related business
Manufacturer
Unknown
Mission
Spacecraft
Bus & Motor
Unknown
Mass
Unknown
Launch date (UTC)
1970-04-08 (56 years ago)
Launch vehicle
Unknown
Launch site
Air Force Western Test Range (AFWTR)
Object type
Payload
Rocket body
Debris
Shape & HBR
Unknown shape, 0.3 m
Radar Cross Section
Medium (>0.1 m² and <1 m²)

Expand to show TLE details & history
Last TLE update: 16 hours ago

TLE from 16 hours ago
0 THORAD AGENA D DEB
1 10136U 70025NQ  26207.89307424  .00000015  00000-0  94359-4 0  9999
2 10136 100.1677 184.8837 0000280 258.1397 156.9352 13.52039969775860
Epoch: 2026-07-26T21:26Z
TLE epoch observation values (Epoch: 2026-07-26T21:26:01.614Z)
Latitude
53.90585°
Longitude
-95.37362°
Altitude
1,073.699 km
Speed
7.32 km/s
True Right ascension
11h 22m 52s
True Declination
53° 44' 56"
Sunlit
Object was in daylight at epoch
Visualization orbit readout
Latitude
Unknown
Longitude
Unknown
Altitude
Unknown
Speed
Unknown
Apparent Right ascension
Unknown
Apparent Declination
Unknown
Sunlit
N/A
Visualization observer readout
Local Sidereal Time
02:23:06
Azimuth
Unknown
Elevation
Unknown
Doppler factor
Unknown
Orbital elements
Apogee altitude
1,062.294 km
Perigee altitude
1,061.877 km
Semi-major axis
7,440.223 km
Eccentricity
0.00003
Inclination
100.1677°
RAAN
184.8837°
Arg. of periapsis
258.1397°
True anomaly
156.93646°
Mean anomaly
156.9352°
Eccentric anomaly
156.93583°
Mean motion
3.38193 °/min
Orbital period
106.45 mins
BSTAR
0.000094359
Loading maneuver chart data...
Computing Atmospheric mass density...

Documentation

Showing up to 5 results
|